{"data":{"norad_id":56841,"epoch":"2026-09-20T09:06:11.182176Z","epoch_age_seconds":127863,"freshness":"FRESH","line1":"1 56841U 23079U   26263.37929609 -.00000598  00000+0 -12214-4 0  9996","line2":"2 56841  43.0044  39.8562 0001309 253.0041 107.0668 15.27578801183220","mean_motion":15.27578801,"eccentricity":0.0001309,"inclination_deg":43.0044,"raan_deg":39.8562,"arg_perigee_deg":253.0041,"mean_anomaly_deg":107.0668,"bstar":-1.2214e-5,"rev_number":18322,"period_min":94.266822703832,"perigee_km":482.15455654941,"apogee_km":483.95081600927,"semimajor_km":6861.1896862793,"source":"CELESTRAK","updated_at":"2026-09-21T09:00:33.518085Z"}}